Overview Statistics Trail Chart Weather Telemetry Raw packets
 

This is the latest recevied weather packets stored in our database for station/object N5JXS. If no packets are shown the sender has not sent any weather packets the latest 10 day(s).

<< 9 10 11 12 13 14 15 >>
Time Temp. Humidity Pressure Rain* Wind** Luminosity Snow
1788560785 28.89° C 26% 1023.2 hPa 0 mm - 85 W/m² -
1788560480 28.33° C 27% 1023.4 hPa 0 mm - 95 W/m² -
1788560180 28.33° C 27% 1023.6 hPa 0 mm - 95 W/m² -
1788559879 28.33° C 26% 1023.1 hPa 0 mm - 88 W/m² -
1788559575 28.89° C 24% 1023.4 hPa 0 mm - 103 W/m² -
1788559270 29.44° C 24% 1023.5 hPa 0 mm - 230 W/m² -
1788558970 30° C 24% 1023.1 hPa 0 mm - 125 W/m² -
1788558666 30.56° C 24% 1023.5 hPa 0 mm - 161 W/m² -
1788558360 31.11° C 23% 1023.7 hPa 0 mm - 123 W/m² -
1788558050 31.11° C 23% 1023.4 hPa 0 mm - 563 W/m² -
1788557748 30.56° C 23% 1023.4 hPa 0 mm - 509 W/m² -
1788557446 30.56° C 22% 1023.7 hPa 0 mm - 482 W/m² -
1788557144 31.11° C 22% 1023.5 hPa 0 mm - 514 W/m² -
1788556840 30.56° C 22% 1023.5 hPa 0 mm - 534 W/m² -
1788556540 30.56° C 22% 1023.6 hPa 0 mm - 580 W/m² -
1788556235 30° C 23% 1023.7 hPa 0 mm - 608 W/m² -
1788555934 30.56° C 22% 1023.7 hPa 0 mm - 611 W/m² -
1788555631 29.44° C 23% 1023.9 hPa 0 mm - 618 W/m² -
1788555326 28.89° C 24% 1023.9 hPa 0 mm - 616 W/m² -
1788555022 28.89° C 24% 1024 hPa 0 mm - 102 W/m² -
1788554718 28.89° C 24% 1024 hPa 0 mm - 125 W/m² -
1788554414 29.44° C 24% 1024.1 hPa 0 mm - 438 W/m² -
1788554110 30° C 23% 1024 hPa 0 mm - 73 W/m² -
1788553806 30° C 23% 1024.1 hPa 0 mm - 665 W/m² -
1788553502 30° C 23% 1024.4 hPa 0 mm - 655 W/m² -

* Rain latest hour (hover to see other rain measurements)
** Current wind speed in m/s (hover to see current wind gust speed)